Wind_Speed
4 3 3 2 3 3 2 2 2 2 3 3 3 2 2 2 2 1 2 2 1 2 1 2 3 4 5 6 7 7 8 7 4 1 1 0 1 2 3 4 4 6 5 5 6 3 2 5 8 8 5 4 5 2 3 3 3 5 4 4 3 4 4 6 7 7 5 2 5 4 3 7 4 2 1 1 5 3 1 2 2 4 3 3 2 2 7 14
4 3 2 2 2 3 3 3 1 2 2 2 2 2 2 2 2 2 2 2 2 2 2 3 3 4 5 6 7 8 8 6 3 1 1 1 2 3 3 4 5 6 6 6 8 6 4 3 7 7 6 3 3 3 3 2 4 4 3 4 3 6 5 6 7 6 2 1 4 3 1 4 5 3 2 1 3 4 0 3 4 5 5 2 2 4 9 15
4 4 3 2 2 2 3 3 2 1 2 2 2 2 2 2 2 2 1 2 1 1 2 3 3 4 5 6 7 8 7 4 2 1 2 4 4 4 3 4 5 6 7 7 7 6 4 0 2 5 5 4 2 3 4 4 2 2 4 3 4 6 4 4 6 7 4 3 6 4 1 1 3 3 1 2 1 1 3 5 1 4 7 5 4 5 10 15
5 4 3 2 2 2 2 2 2 2 2 3 3 3 2 1 1 2 1 1 1 1 2 2 3 4 5 6 6 6 5 4 1 1 4 6 6 5 3 5 6 7 7 7 6 5 4 3 4 5 4 3 4 4 4 4 1 2 4 3 5 3 1 3 6 6 4 4 5 4 3 1 3 2 2 5 4 3 7 8 8 9 9 8 7 6 11 15
4 3 3 2 1 1 1 1 1 3 3 3 3 3 3 2 1 1 1 1 0 1 1 2 3 4 5 6 6 5 5 5 1 1 4 7 7 5 3 5 6 7 7 6 5 4 4 4 6 6 5 3 5 5 2 3 2 3 2 3 5 3 1 2 5 4 4 4 5 5 4 3 2 1 3 8 6 6 6 7 9 9 7 9 9 9 10 13
4 3 2 1 1 1 1 1 1 1 0 1 3 3 3 2 1 1 1 1 0 0 1 1 2 4 4 5 5 4 4 2 3 1 4 7 7 4 3 5 6 8 7 6 4 3 4 5 7 4 4 3 3 3 1 4 2 3 1 1 4 3 1 1 2 3 5 6 6 5 3 3 3 2 2 7 9 8 5 5 6 7 7 10 11 10 9 10
4 4 3 1 1 1 1 1 2 2 3 2 2 2 2 2 1 1 1 1 1 1 1 1 3 3 4 4 3 4 4 2 3 3 6 7 6 4 3 4 6 8 7 6 5 3 4 7 6 3 4 4 1 2 1 5 4 5 1 2 2 4 3 1 2 3 4 5 6 4 2 3 5 4 1 5 11 6 3 4 3 4 6 11 10 9 9 10
5 4 3 1 0 0 0 1 2 2 2 2 3 2 1 1 1 1 1 1 1 1 1 1 3 3 3 2 2 4 2 3 2 4 7 7 6 4 1 4 6 7 6 8 6 3 3 5 4 4 4 2 3 2 3 3 5 5 2 2 1 2 4 2 3 4 2 2 1 3 2 3 5 3 0 8 11 3 1 2 3 4 7 9 8 8 8 9
6 4 3 2 1 1 0 0 1 2 2 2 3 3 3 3 1 0 1 1 2 1 1 2 2 3 3 3 5 3 3 3 1 5 7 7 6 3 1 3 7 6 7 8 6 3 2 1 3 3 4 2 3 2 3 2 1 1 3 1 0 2 5 3 1 3 2 1 1 3 3 5 3 1 4 9 7 2 3 4 4 6 7 6 7 7 8 8
6 5 4 3 2 2 1 1 1 1 2 2 2 2 3 3 2 1 0 1 2 2 1 2 2 3 3 3 6 1 4 3 2 5 6 6 6 3 0 4 6 6 6 7 7 6 3 4 4 4 6 3 3 2 2 2 1 2 4 2 2 2 5 2 0 2 2 2 2 4 6 5 4 1 5 6 2 4 5 4 2 5 6 6 5 6 8 9
4 2 3 4 3 2 1 1 2 2 2 2 3 2 2 2 2 1 1 1 1 2 2 2 2 2 2 5 6 3 3 3 1 4 5 6 5 3 1 4 5 5 5 6 7 6 4 5 6 4 2 1 2 2 2 1 2 2 3 1 3 6 4 1 0 3 1 1 4 5 4 4 4 1 6 3 2 3 4 4 3 5 6 6 5 5 6 9
1 1 1 2 2 3 3 3 3 4 5 5 4 3 2 2 2 1 1 1 1 1 2 2 3 2 3 5 3 5 2 2 1 3 4 5 5 3 3 4 5 6 4 5 5 5 5 4 7 5 0 2 2 2 1 1 3 1 3 0 6 8 5 2 1 2 2 2 4 5 2 4 3 7 6 1 2 2 4 6 5 6 6 5 5 5 5 8
1 0 1 2 2 4 5 5 5 6 6 6 5 3 2 2 3 1 1 1 1 1 1 2 2 3 4 1 2 4 3 2 1 3 4 4 5 4 3 3 5 6 5 7 5 5 5 2 6 6 2 5 2 1 3 4 3 1 3 2 4 7 5 4 2 1 3 3 2 3 3 6 8 11 6 0 5 5 3 6 5 5 5 5 5 4 5 8
3 1 1 2 3 4 5 6 6 6 6 5 4 3 3 3 2 1 1 1 1 1 1 3 2 3 4 2 3 2 5 4 2 3 5 5 6 5 4 4 5 6 7 8 6 7 6 4 7 7 3 3 2 1 4 6 4 1 2 2 3 2 4 6 2 3 4 1 1 3 3 6 9 11 5 2 6 6 6 8 6 6 6 5 5 5 6 8
4 3 1 2 2 3 4 5 6 6 6 3 2 3 3 3 1 1 1 1 2 2 2 3 3 4 3 3 3 2 4 4 3 5 5 6 6 5 5 5 5 6 7 7 8 8 7 5 6 5 1 2 3 4 4 4 4 3 1 3 3 1 5 8 3 4 3 1 2 3 3 7 9 9 6 2 4 5 7 7 6 7 7 7 6 6 7 7
4 3 2 2 2 3 4 5 5 6 5 3 2 2 2 2 2 2 2 2 3 3 3 4 3 5 3 2 2 2 3 3 4 6 6 7 6 6 7 7 6 6 7 7 6 6 8 7 4 3 1 1 5 5 4 3 4 4 1 3 2 1 3 6 2 2 1 1 1 1 3 5 5 6 5 0 5 5 6 8 8 8 8 8 6 6 7 6
5 4 3 2 2 2 3 4 5 5 4 2 1 2 3 3 3 3 4 6 6 4 5 4 4 4 1 2 2 3 2 3 4 7 8 7 6 8 9 7 6 7 7 6 5 3 7 6 1 1 2 3 3 5 4 2 4 4 2 1 4 3 2 3 4 2 1 2 2 2 3 7 8 5 4 1 5 5 7 10 9 9 8 7 6 7 8 8
6 6 5 4 3 2 3 4 5 5 3 1 1 4 5 5 4 5 7 9 7 6 5 3 4 3 2 2 2 2 1 3 5 7 9 8 7 8 8 6 5 7 6 5 4 3 4 4 2 1 3 3 2 5 3 4 4 3 3 1 3 3 2 3 4 2 2 2 2 3 4 11 14 11 7 5 6 6 9 10 9 8 8 7 7 9 9 9
7 7 6 5 4 3 3 4 4 4 2 1 4 7 7 5 5 4 6 6 4 3 1 2 3 3 3 2 1 2 4 5 6 6 7 8 8 9 10 8 6 6 5 1 2 2 1 3 4 1 1 2 4 6 8 8 6 6 6 4 4 3 3 5 5 5 3 2 4 7 7 11 12 13 10 5 6 7 9 8 8 8 8 8 8 9 9 11
9 8 7 6 4 3 3 4 4 3 2 2 6 7 4 3 4 2 1 1 3 4 2 3 4 3 1 1 1 6 7 5 3 4 6 8 10 10 7 6 7 6 3 3 1 2 3 3 2 5 7 8 9 8 6 5 6 6 5 3 4 4 5 5 4 6 2 3 6 8 8 11 11 13 12 4 4 6 9 10 11 11 9 9 10 12 12 12
11 9 8 7 5 4 3 4 4 3 3 4 6 4 2 3 3 1 2 4 7 5 1 1 1 1 1 1 5 7 5 3 3 2 7 8 10 8 1 3 5 2 1 3 2 2 4 3 7 10 9 7 7 6 5 6 5 5 5 2 2 3 6 7 3 4 1 3 6 4 5 11 12 13 12 4 3 8 11 11 14 14 12 10 11 14 12 9
13 11 10 8 7 5 4 3 3 5 4 5 5 2 1 3 4 2 1 2 8 7 5 2 2 4 3 1 6 5 3 2 1 2 7 7 4 5 1 4 6 3 1 2 3 2 2 4 12 9 4 5 3 5 6 5 4 3 3 2 3 3 4 6 3 4 1 4 4 4 4 10 12 13 12 10 9 10 10 12 14 14 12 11 12 13 11 8
16 14 11 10 8 7 4 3 4 5 5 5 5 3 0 2 5 3 2 1 5 4 4 5 4 4 3 2 6 7 2 4 4 4 9 8 2 3 4 5 5 4 3 4 5 4 3 6 11 5 8 7 4 4 7 5 2 2 3 3 3 3 1 3 4 3 0 2 2 4 5 7 10 12 11 12 11 9 10 13 13 12 12 14 13 10 10 11
19 17 14 11 10 8 6 4 4 5 7 7 9 9 4 4 5 2 1 0 4 4 3 6 5 5 6 4 8 10 2 3 5 5 11 11 4 2 4 5 5 5 4 8 8 6 6 6 2 5 7 8 5 4 7 5 3 4 5 6 4 4 6 6 4 4 2 2 3 3 6 6 7 10 10 7 5 7 10 12 13 13 13 13 11 10 11 11
20 19 17 14 11 10 8 5 5 7 7 6 11 13 8 6 5 3 2 2 3 5 3 3 3 5 9 7 10 10 1 3 4 6 14 14 8 4 2 2 4 5 6 6 6 5 8 5 4 6 4 6 7 4 6 7 4 5 5 10 10 8 7 4 3 5 4 4 3 3 4 6 4 7 10 5 5 7 8 9 13 14 11 10 11 12 11 9
23 21 20 17 13 12 10 4 7 9 7 6 9 10 10 7 4 3 3 4 3 4 1 3 3 6 10 7 8 7 2 5 4 6 14 14 9 5 3 2 2 4 7 5 3 3 4 3 4 6 5 6 6 4 6 7 5 3 5 9 10 7 5 4 1 2 1 4 4 2 1 6 5 7 10 5 6 10 9 10 12 12 10 9 10 11 9 9
23 23 22 20 17 17 11 3 6 8 4 5 7 10 13 10 5 2 3 4 5 3 4 2 1 5 7 7 9 8 2 5 2 6 9 10 6 3 3 5 2 2 4 4 2 3 4 4 3 5 6 5 5 4 6 8 7 3 4 5 7 7 6 5 4 3 3 3 4 1 2 4 6 8 8 3 6 11 11 12 13 12 12 10 10 10 10 10
18 23 25 23 22 23 15 6 9 10 4 2 1 12 16 11 6 2 4 0 4 2 4 1 1 3 2 4 7 6 2 2 4 2 0 5 4 3 2 7 6 6 5 6 5 3 4 7 7 7 5 4 6 5 8 11 6 4 2 6 6 6 5 4 5 3 1 3 5 2 4 3 7 7 4 3 5 9 11 14 14 12 11 10 10 10 9 8
11 18 25 27 25 25 21 12 9 7 7 1 1 13 18 12 6 5 4 3 2 1 2 1 2 1 3 3 3 2 2 2 2 2 3 4 2 4 3 6 6 6 4 4 6 2 1 5 7 7 5 6 4 2 6 11 5 3 6 7 6 5 5 5 4 3 3 3 7 6 6 3 6 4 2 2 3 7 10 12 12 9 7 8 9 8 6 6
7 11 22 28 26 26 22 15 12 7 5 3 3 15 18 8 4 4 1 4 1 0 0 1 3 2 7 8 1 2 2 2 1 1 3 1 2 5 2 3 6 5 1 4 5 3 1 1 2 3 4 5 4 3 1 4 5 6 7 6 6 6 5 4 2 4 2 5 7 6 9 7 5 3 5 5 5 7 8 9 10 7 6 7 7 6 5 5
6 7 15 26 29 29 20 11 17 15 3 2 7 13 11 2 3 5 6 2 1 1 1 1 2 4 12 13 5 2 3 1 1 4 3 1 2 3 1 2 4 4 2 5 5 3 3 1 1 2 2 4 6 5 4 3 4 5 5 5 4 3 4 4 4 4 2 6 4 2 5 7 7 6 4 6 7 6 8 9 10 8 8 8 6 5 5 5
8 5 11 25 30 30 22 14 21 20 6 7 11 7 3 2 1 5 4 1 1 3 4 3 3 5 10 8 5 6 5 1 3 6 6 4 4 5 5 5 5 2 2 7 5 3 2 4 3 2 1 4 6 5 4 4 2 4 5 5 4 2 3 3 3 0 3 7 3 1 1 3 8 8 8 11 12 11 10 10 9 9 10 10 7 5 4 4
9 7 9 22 31 31 26 19 22 22 13 15 12 3 1 5 6 8 7 3 2 2 2 3 2 4 8 6 3 3 3 1 4 4 3 5 6 7 6 5 6 3 2 6 3 1 4 5 2 1 2 3 8 6 3 1 2 4 5 5 4 2 1 3 4 2 4 5 3 1 1 3 5 5 11 17 17 13 10 9 9 9 11 10 7 5 4 5
10 10 9 16 29 35 30 22 23 25 22 19 10 3 3 5 6 9 12 9 2 2 2 3 5 5 6 5 4 5 3 3 5 4 2 5 5 6 6 7 7 3 3 4 3 6 6 6 5 7 3 5 10 8 6 6 5 5 4 5 5 5 5 4 4 3 5 4 3 2 1 3 3 3 7 11 11 8 8 9 8 9 10 8 6 5 5 5
10 12 10 12 23 33 31 24 25 29 25 16 7 5 8 7 4 6 9 8 2 3 3 2 6 6 4 3 3 6 5 2 5 5 3 6 6 8 7 8 11 6 5 5 2 4 6 8 6 3 1 9 11 5 5 8 3 3 3 4 3 5 5 2 3 5 2 3 4 2 4 5 4 6 8 7 8 7 7 8 7 10 11 5 6 7 6 6
9 11 12 13 18 27 29 25 28 33 25 11 6 7 9 9 5 4 5 5 4 4 4 2 4 5 5 2 2 5 2 1 5 5 3 5 6 8 8 8 13 13 10 8 3 2 4 6 5 2 2 5 6 3 4 4 3 2 3 4 4 4 6 2 2 1 4 2 4 2 4 5 3 7 9 7 9 9 8 8 7 11 10 5 7 8 5 6
9 9 11 13 16 21 26 27 31 32 18 7 8 9 8 7 4 4 3 3 4 7 7 3 3 5 6 4 3 6 2 1 4 4 3 3 3 7 9 7 10 17 16 10 4 3 5 4 5 1 1 3 1 2 3 2 3 5 4 6 3 2 3 2 1 2 3 3 5 2 5 5 3 6 5 1 7 11 11 10 10 11 7 6 11 7 5 7
8 7 9 16 19 19 23 29 31 23 10 5 7 8 7 8 8 6 4 3 6 7 7 6 5 5 6 6 5 6 6 3 5 5 4 3 4 8 11 6 5 15 17 9 3 3 4 3 5 1 3 3 4 3 1 4 2 5 4 4 4 2 2 2 2 2 1 3 5 4 5 4 5 6 3 4 8 10 11 10 10 10 9 10 11 5 4 6
6 5 6 11 19 20 24 31 27 13 5 6 7 7 6 10 10 5 3 4 7 8 8 9 6 3 4 7 5 5 8 7 8 7 4 5 5 6 12 10 5 10 14 11 6 3 3 4 4 2 1 1 3 1 5 2 2 3 2 3 2 2 4 3 3 3 3 3 3 4 5 5 7 7 7 10 12 10 9 7 7 10 12 10 8 4 5 7
4 4 3 5 13 22 29 28 16 7 6 7 8 8 6 7 6 5 7 5 4 5 7 8 8 5 5 7 5 5 8 8 8 7 5 7 6 5 9 11 5 4 9 11 8 1 2 4 4 2 3 1 2 5 8 9 6 4 4 5 3 1 2 1 1 2 4 3 2 2 6 9 6 5 9 11 11 10 10 7 8 10 10 8 6 6 6 6
3 4 3 6 18 28 29 18 6 5 7 6 9 9 7 4 3 5 10 5 1 2 3 4 7 7 6 6 4 4 6 5 6 6 4 6 8 6 7 11 9 7 7 7 8 6 3 4 4 2 1 4 5 4 5 8 8 8 8 8 9 6 4 3 3 1 2 2 3 3 6 12 6 5 8 9 8 9 10 9 9 9 8 6 5 6 6 6
3 4 2 9 28 34 19 5 4 5 5 6 9 8 4 2 2 4 7 5 1 3 1 1 5 7 6 6 5 5 6 5 7 7 5 8 11 9 6 9 12 13 10 7 10 9 4 3 4 4 4 6 5 2 2 4 4 4 4 5 7 7 6 6 5 3 2 1 1 4 3 12 5 5 6 6 5 6 5 8 9 8 7 6 5 5 5 6
4 5 3 6 31 33 11 4 7 5 6 7 9 7 2 2 3 3 4 6 5 3 1 2 3 5 5 3 4 6 7 6 8 10 8 8 11 9 6 8 11 13 10 5 6 5 2 2 3 3 2 3 4 4 2 1 1 3 4 2 4 6 5 5 5 4 4 4 3 4 4 11 4 1 3 3 3 4 4 6 8 7 7 6 6 5 5 6
2 4 3 4 26 26 9 6 8 6 9 10 9 8 5 3 5 6 6 8 7 4 4 5 3 3 3 2 4 6 9 7 7 12 10 6 7 5 7 11 11 11 9 6 6 6 4 4 5 5 3 3 3 3 2 1 2 3 4 3 5 8 6 3 2 3 2 7 9 5 7 11 4 4 3 3 5 6 6 6 6 6 7 6 5 4 5 5
2 3 1 6 17 14 5 6 8 7 11 12 11 10 8 4 5 8 8 7 5 4 5 5 3 3 2 2 2 4 9 9 8 8 8 6 5 2 5 12 12 10 9 5 7 8 6 6 7 8 8 8 8 6 5 4 3 1 4 5 7 10 10 6 3 3 5 9 9 7 11 11 2 4 6 6 5 7 8 7 6 7 8 6 5 4 5 5
1 2 2 3 7 6 4 5 5 6 9 11 10 10 13 11 6 6 8 6 5 6 5 2 2 4 3 3 3 4 7 10 9 5 5 7 5 2 4 10 12 13 10 5 6 6 3 4 10 12 12 13 13 9 4 8 7 6 9 10 10 11 13 10 5 6 9 6 4 11 18 17 9 4 6 8 6 8 9 6 5 8 8 7 6 5 4 5
2 4 3 3 2 4 6 6 6 6 8 9 7 6 13 16 9 5 7 8 7 8 6 4 4 6 5 6 7 7 8 10 10 8 6 7 4 3 1 5 9 14 11 5 5 5 3 4 11 15 16 17 18 14 7 9 10 14 14 14 14 13 13 12 11 14 12 5 7 17 18 17 20 14 9 9 8 8 9 8 8 8 7 6 5 4 4 5
3 3 3 2 1 3 6 7 7 8 10 9 6 6 12 16 13 8 6 7 8 9 7 4 8 12 11 11 10 9 9 9 10 12 11 8 4 1 1 2 6 9 8 5 4 5 3 5 8 12 15 17 20 15 10 9 10 12 15 17 17 16 16 17 20 22 17 10 14 21 15 14 22 19 12 11 10 9 10 9 7 6 6 6 4 4 6 6
3 2 3 1 1 3 4 3 2 5 10 9 5 7 11 14 16 13 7 6 7 9 10 9 13 17 16 13 10 9 10 10 10 11 12 9 6 3 2 4 4 3 5 6 4 2 3 5 8 11 13 16 20 16 11 12 10 9 12 16 18 19 21 23 25 27 23 16 17 21 17 17 21 18 12 11 10 10 9 6 4 6 8 7 6 7 7 8
3 1 1 0 1 4 4 3 2 2 6 6 4 5 7 11 16 13 9 9 8 8 12 16 17 16 15 16 14 13 14 14 14 15 13 11 8 5 5 5 3 2 4 6 3 1 4 6 7 7 8 12 18 17 11 11 11 10 9 10 14 18 22 25 25 21 17 16 19 22 19 20 20 13 9 9 8 8 8 7 7 9 10 9 8 8 9 9
6 2 0 1 1 4 4 4 4 4 5 5 4 3 4 8 12 10 8 12 13 10 11 17 19 14 12 16 18 18 19 18 19 18 13 10 9 7 5 5 5 5 5 6 3 3 5 4 1 3 6 10 15 18 12 7 6 8 8 10 16 20 20 20 18 16 15 17 20 19 16 19 17 6 5 6 7 8 10 11 10 11 10 10 11 10 11 11
9 6 2 1 2 4 3 2 4 5 6 7 6 6 6 6 6 6 5 7 13 15 13 17 19 14 11 16 20 22 23 21 18 14 7 5 7 6 5 5 6 6 6 6 4 3 5 4 2 4 6 10 16 18 10 5 3 8 12 18 24 22 16 13 13 17 20 18 15 14 15 21 17 4 4 7 7 9 12 12 12 13 11 11 11 11 11 11
Wind_Direction
163 164 159 151 153 161 166 171 183 211 228 232 232 225 231 236 229 236 258 266 264 278 299 302 318 324 329 339 343 346 343 341 340 350 72 64 64 96 75 38 22 16 23 16 29 92 42 16 3 17 67 53 11 341 17 26 57 56 79 96 145 176 196 187 177 192 172 198 219 226 185 141 171 213 171 37 34 43 1 329 314 315 285 226 241 164 158 159
166 164 163 144 144 166 169 162 160 217 229 233 234 225 233 242 237 234 245 269 269 282 310 308 323 327 333 342 342 346 341 342 354 316 243 179 152 123 93 48 36 26 29 38 42 55 69 350 343 25 54 44 350 346 31 12 58 86 109 97 197 195 201 196 176 188 165 134 187 195 159 155 181 166 136 196 331 10 12 283 339 330 287 236 207 164 167 166
168 172 175 152 141 167 171 159 146 223 226 217 224 215 221 244 247 237 244 262 273 300 319 320 328 333 339 342 344 346 343 359 14 322 168 161 156 139 100 55 42 34 33 38 36 40 72 202 357 50 52 52 0 359 39 9 34 133 107 92 232 211 223 219 180 195 202 147 151 175 171 179 215 162 155 181 167 358 220 233 254 271 251 217 207 165 163 170
173 176 179 158 144 155 147 148 165 207 213 202 207 203 203 222 236 229 245 254 285 311 323 339 337 341 341 340 348 342 359 41 12 196 152 162 158 146 99 56 39 34 32 33 32 36 64 88 66 60 62 47 342 15 47 347 353 113 104 154 221 184 209 223 192 206 205 160 146 154 129 172 240 167 149 147 143 272 245 227 209 222 223 198 204 182 167 174
178 181 177 152 130 133 121 153 200 221 214 195 195 200 194 194 221 202 196 224 270 321 338 347 342 345 341 346 349 335 21 58 246 190 151 166 157 151 93 48 29 26 25 25 19 32 54 65 60 48 53 44 347 27 37 316 64 68 65 184 194 146 118 222 192 186 159 127 115 129 149 178 176 139 154 154 182 239 229 229 220 219 206 185 187 178 171 177
184 183 181 165 125 107 88 116 42 340 263 174 178 188 189 193 188 168 170 160 153 110 1 353 353 349 345 354 348 352 65 79 262 185 169 168 158 156 94 36 22 17 14 23 16 30 44 41 56 50 48 55 4 48 9 309 46 91 357 248 207 185 187 223 165 169 134 119 143 162 180 142 120 256 190 171 216 226 218 246 240 242 216 178 166 164 172 180
188 181 182 190 146 142 36 64 43 26 24 46 112 146 174 173 137 179 185 121 122 108 52 13 0 354 1 4 353 32 77 260 276 176 182 169 165 163 89 21 17 8 6 31 25 58 67 44 69 116 79 69 192 96 347 316 36 90 113 291 207 191 219 281 89 145 132 141 190 177 125 138 172 217 85 208 239 239 262 278 242 231 185 162 155 165 181 185
197 192 184 194 203 123 52 49 33 30 29 38 56 66 90 103 115 175 179 141 122 99 59 28 10 15 14 22 53 31 8 275 282 179 181 173 175 170 101 17 15 9 32 41 28 113 91 54 107 149 86 86 173 112 349 343 31 67 141 240 171 206 261 309 74 100 119 188 201 120 149 223 199 186 130 241 248 258 345 36 97 125 136 152 165 174 181 183
206 211 205 210 232 268 280 41 27 33 50 48 38 31 34 51 62 272 191 167 131 124 80 54 13 27 33 64 83 48 281 294 304 189 179 179 181 173 163 15 14 17 50 41 33 90 97 124 178 172 144 161 135 80 354 50 9 136 141 209 67 333 319 341 88 72 45 274 92 142 239 287 274 234 266 254 243 192 108 78 93 122 138 166 176 181 184 184
207 214 220 226 226 250 277 321 342 12 42 28 12 14 13 23 17 346 294 200 151 144 94 77 30 48 62 75 85 93 277 337 301 196 177 180 179 175 136 15 12 32 56 41 42 55 66 171 176 142 138 128 99 66 359 84 145 139 109 114 84 337 321 26 47 357 13 281 178 194 245 290 331 315 256 269 212 151 108 93 123 145 167 187 185 196 196 196
204 199 220 230 233 270 308 310 316 354 16 354 348 353 350 357 359 352 329 257 179 143 109 94 63 68 74 78 107 194 278 6 280 188 176 179 170 166 69 19 18 53 63 51 53 45 57 147 140 116 121 103 100 38 352 106 101 92 104 130 347 343 319 58 328 300 1 247 184 172 242 297 357 267 236 270 139 157 130 148 188 178 195 202 200 213 206 212
214 105 281 255 266 335 346 332 353 12 4 355 344 337 347 345 340 327 286 270 212 137 113 100 78 97 77 65 138 213 265 11 295 180 178 180 160 142 67 30 35 58 71 69 63 44 56 132 112 85 319 137 120 33 90 97 67 53 76 84 316 357 348 288 297 273 172 201 181 147 291 286 238 227 245 345 135 123 135 181 211 207 219 224 222 231 222 225
259 251 348 349 352 355 353 344 356 3 357 353 343 343 0 337 334 315 278 284 205 135 110 106 89 97 86 50 226 225 251 297 270 180 176 176 155 128 76 58 55 61 78 90 81 49 58 144 112 102 126 108 121 194 103 52 40 321 43 64 323 1 338 292 26 41 161 177 175 144 278 268 242 244 263 57 151 127 164 214 224 224 236 239 236 240 237 234
261 261 319 357 4 359 359 354 349 347 346 344 341 357 4 354 346 300 267 263 187 142 95 96 98 95 89 247 253 266 257 255 232 190 182 178 154 124 94 82 78 76 79 86 81 56 66 124 106 98 95 87 132 120 42 15 22 6 15 38 10 10 285 294 349 134 153 174 79 124 249 269 265 266 280 234 173 159 204 228 227 232 242 239 242 240 241 238
252 259 288 339 359 1 3 359 351 347 340 328 341 5 11 22 37 51 76 191 148 121 105 97 100 92 67 286 273 302 264 239 211 197 184 178 159 129 113 105 97 88 80 80 81 66 66 97 86 74 32 3 68 76 30 358 17 35 334 312 349 164 271 304 297 165 155 357 47 120 235 276 274 275 301 259 186 184 219 237 235 237 239 235 240 235 241 248
247 252 271 292 325 354 3 356 353 349 335 314 338 17 36 55 70 88 111 122 117 113 100 91 88 93 82 281 275 293 264 206 192 187 174 173 166 142 124 114 95 86 86 79 84 71 48 55 64 60 139 54 70 84 48 11 347 0 64 245 272 179 279 313 316 227 230 62 24 191 235 283 281 282 327 22 179 196 236 253 245 237 238 233 235 234 237 244
247 249 258 263 285 321 346 346 351 351 336 316 333 53 72 73 83 102 116 112 110 106 95 105 101 89 90 257 253 282 266 165 173 171 166 156 148 143 128 107 85 83 84 69 67 56 28 38 70 348 47 58 85 96 60 339 287 318 21 231 242 200 212 294 314 299 35 88 219 232 235 260 267 275 312 217 182 189 228 247 244 239 239 235 234 237 236 232
247 249 248 251 265 284 328 338 346 349 340 322 104 108 94 82 93 114 126 121 107 86 76 93 88 70 278 256 209 258 52 131 154 154 157 141 130 135 121 101 94 79 58 40 37 38 17 28 67 31 20 13 67 104 136 223 212 193 187 192 249 240 217 255 282 250 114 76 230 221 247 259 268 274 266 223 183 190 226 242 249 248 243 239 236 237 236 230
248 249 243 247 257 268 300 315 329 336 336 114 125 118 100 76 82 111 126 123 118 110 146 210 137 132 213 251 214 116 90 109 140 149 148 137 130 117 100 88 89 78 68 65 346 18 57 51 63 79 245 224 185 168 189 201 164 158 173 154 182 226 252 235 250 257 198 146 240 226 236 254 264 272 269 238 179 203 241 255 260 256 244 237 236 239 235 231
248 246 244 243 241 260 282 298 319 321 310 155 140 122 99 71 54 11 312 235 203 161 137 217 186 157 167 302 139 124 109 95 111 152 145 144 137 112 80 50 55 57 88 158 225 13 91 113 171 218 217 204 201 195 179 154 126 121 130 135 188 209 265 251 247 283 237 167 250 234 234 258 261 266 270 250 158 218 249 254 256 251 241 235 233 237 233 233
247 243 244 240 230 246 265 290 315 306 284 189 157 127 147 152 106 298 272 272 253 218 188 272 184 225 257 182 167 148 124 69 36 133 152 154 146 133 64 30 79 60 287 167 152 36 76 143 224 231 214 197 196 174 132 112 99 93 130 175 250 214 251 253 230 297 300 176 265 271 250 262 261 263 271 264 187 231 237 238 248 246 241 236 234 239 234 231
246 242 241 236 224 227 241 273 288 287 273 203 176 140 219 164 115 96 121 298 278 240 205 221 352 285 269 207 187 165 90 76 14 233 170 149 141 167 171 76 126 179 263 114 109 39 62 221 241 234 155 116 105 127 130 122 112 95 118 155 259 246 273 281 282 329 357 185 269 309 276 265 265 263 265 255 239 241 236 232 243 245 244 241 235 239 234 224
247 242 237 231 222 217 224 241 254 274 263 214 197 185 151 127 113 72 85 105 299 274 192 201 225 240 241 272 205 173 131 167 187 233 184 150 113 177 139 116 143 139 130 166 159 153 177 248 249 203 132 123 89 103 122 115 134 156 146 164 237 247 274 281 294 327 215 194 278 300 286 272 267 266 258 249 245 255 255 246 249 247 243 245 241 235 227 222
248 244 237 227 217 209 207 215 230 251 245 236 228 206 148 118 132 78 32 89 301 287 230 203 202 198 199 211 187 173 189 193 172 203 183 156 121 150 155 146 138 128 182 194 174 183 220 247 247 124 145 155 124 116 137 146 236 236 196 195 215 223 218 232 288 326 323 354 8 326 301 278 259 262 259 267 294 280 262 256 260 253 241 246 254 245 227 220
248 246 239 224 211 204 194 194 219 228 227 244 239 214 167 131 133 97 62 40 301 292 297 218 199 208 198 172 164 165 144 242 216 193 176 163 144 142 174 147 128 177 200 179 168 226 249 239 116 107 146 149 135 162 175 168 207 275 231 204 212 219 225 244 355 10 351 332 342 19 309 282 284 270 260 286 323 277 257 252 255 257 251 243 248 247 232 222
247 247 240 226 208 190 178 195 226 214 208 240 243 207 177 161 137 124 91 46 288 270 285 192 179 194 189 157 151 137 68 263 243 159 166 171 159 121 143 155 76 197 186 151 170 237 243 216 119 126 148 155 159 204 216 176 156 272 251 204 209 207 212 242 118 62 292 265 291 54 241 277 305 281 264 266 268 264 263 260 258 262 261 242 239 245 233 220
245 246 241 228 206 183 173 195 205 185 188 260 248 195 184 180 163 159 79 26 282 210 138 207 189 162 175 166 155 135 181 248 110 126 161 173 177 76 125 175 110 189 166 122 230 251 173 170 134 132 126 147 179 221 218 171 146 238 251 165 171 176 196 207 161 181 235 268 304 43 142 273 286 271 276 277 258 272 275 268 265 260 259 254 245 243 232 220
244 245 240 227 210 196 192 187 171 174 198 309 229 186 181 175 172 120 81 2 281 136 127 254 166 117 111 160 158 130 220 236 112 180 216 139 176 54 129 195 168 180 175 145 212 266 147 176 190 170 148 177 201 220 189 160 157 245 205 122 134 151 166 141 130 179 331 351 294 241 136 262 270 262 301 323 255 271 274 265 263 258 257 259 253 247 236 222
248 244 237 226 213 204 204 200 178 190 223 270 100 177 170 164 163 73 72 208 275 83 134 112 134 95 59 134 182 77 32 20 108 250 8 105 157 54 156 198 146 163 200 190 217 273 107 197 198 166 167 202 207 262 183 165 181 203 128 96 80 80 81 85 113 128 59 320 252 206 154 224 272 240 212 286 249 248 259 264 265 263 262 257 257 261 245 214
255 247 236 220 203 196 198 204 209 211 226 253 189 168 161 154 131 96 153 220 264 322 243 116 173 172 131 141 228 346 64 18 21 54 37 93 24 34 130 153 92 126 245 305 264 259 323 279 209 165 179 185 133 61 140 153 149 139 109 72 53 40 42 54 56 86 79 275 255 205 179 189 269 258 195 227 229 214 233 260 271 282 291 270 261 267 243 207
249 257 237 215 200 193 187 196 210 204 198 202 164 152 153 109 84 165 202 229 348 217 144 174 196 146 151 158 178 194 132 41 152 133 123 164 68 49 93 113 78 78 0 295 278 298 333 326 249 230 171 126 98 68 25 50 103 108 91 82 73 355 9 24 355 50 152 256 280 258 181 178 235 256 235 251 256 233 226 246 263 276 285 277 271 268 241 204
239 250 241 220 208 198 196 205 202 191 153 133 144 132 147 134 134 206 214 46 343 206 167 182 196 165 167 167 174 171 145 113 176 162 155 155 165 184 195 186 162 114 250 238 249 338 293 232 251 302 212 139 115 84 34 15 36 83 102 108 100 333 349 345 299 140 221 254 274 323 122 200 239 251 256 260 260 248 233 235 247 254 262 266 273 268 238 200
246 239 242 224 213 205 207 211 198 185 157 137 135 67 61 166 194 207 202 190 203 214 141 121 106 137 151 155 189 162 116 173 184 174 160 144 172 208 229 220 184 156 193 200 206 268 277 288 271 182 260 183 155 157 160 192 184 155 149 141 137 148 187 260 267 270 266 269 271 248 213 251 265 259 243 244 248 246 241 241 235 236 248 256 268 266 233 209
262 241 245 228 216 213 211 206 198 186 162 142 136 96 142 193 212 197 204 220 220 33 30 95 90 105 147 172 210 170 146 221 176 141 129 141 166 212 228 230 209 156 104 150 181 190 219 277 217 178 209 186 181 191 165 138 161 186 158 139 162 167 170 216 226 226 258 283 294 282 231 202 212 250 236 236 257 271 260 255 248 250 251 248 266 268 236 221
273 246 248 240 221 215 209 203 197 180 156 143 149 160 177 206 217 194 210 222 205 50 13 40 94 122 186 262 273 188 170 211 173 141 155 170 187 205 200 207 202 171 138 181 214 169 201 258 246 225 224 170 181 198 119 111 147 216 123 119 196 193 164 197 210 181 191 306 297 246 226 216 210 269 268 244 268 283 266 271 279 268 264 262 269 258 229 219
279 258 249 242 228 216 208 201 187 169 153 145 167 176 197 211 196 185 200 191 178 139 102 58 84 131 202 230 260 224 194 102 158 157 193 202 213 211 201 207 197 185 181 187 196 144 181 268 286 341 352 172 184 191 124 138 183 163 140 182 218 177 138 137 259 72 71 281 271 209 242 288 313 281 272 248 258 268 269 282 268 257 274 308 280 255 216 209
283 266 245 239 234 220 211 200 177 163 155 154 178 190 210 220 192 172 186 155 146 144 139 178 181 161 191 197 207 215 202 74 159 177 200 199 237 218 209 227 200 193 199 192 201 196 166 253 298 75 186 269 279 122 74 26 132 131 182 205 176 96 105 116 219 351 40 251 271 250 246 283 299 274 292 262 251 256 255 255 249 259 284 287 269 253 196 209
286 268 252 243 233 220 211 197 175 162 161 168 196 208 204 216 210 181 169 126 123 151 182 216 204 168 177 191 201 188 175 176 177 190 194 180 243 216 194 218 215 202 206 188 206 244 157 224 301 53 188 293 5 106 83 354 73 134 187 185 126 140 203 123 159 208 204 243 278 290 277 264 214 231 254 209 228 238 243 242 243 260 262 252 262 255 190 217
283 274 270 240 226 219 204 189 174 167 183 179 205 217 201 221 224 193 173 154 144 166 201 220 210 176 177 181 175 165 181 189 172 178 191 182 232 217 183 197 217 205 202 182 192 233 135 198 269 342 252 317 24 149 189 215 41 68 119 143 120 164 181 167 160 169 181 227 269 308 314 269 215 202 199 215 225 218 226 239 231 243 245 243 255 243 206 219
265 259 262 195 207 206 191 179 173 186 200 193 208 209 208 226 217 204 218 198 155 180 205 218 203 186 195 187 171 168 192 199 176 183 205 190 220 244 191 188 183 174 183 181 195 207 111 203 233 328 338 149 186 219 196 180 162 149 166 178 192 157 108 168 179 130 143 166 206 297 298 270 237 185 190 213 225 207 201 218 228 237 241 234 229 224 217 215
223 248 248 182 187 183 173 169 181 206 200 206 217 216 220 215 146 201 218 197 54 247 211 214 203 195 193 187 195 187 179 193 185 191 227 205 211 242 205 180 158 132 134 163 200 205 177 194 185 162 225 200 216 241 206 194 186 181 186 192 193 177 148 181 233 221 121 145 182 177 274 270 247 180 197 207 216 212 198 201 226 242 238 229 230 226 217 208
220 233 249 184 178 168 158 173 203 202 214 212 219 223 216 191 138 203 207 181 211 270 313 270 212 207 199 184 196 179 161 185 191 191 228 220 215 229 218 183 161 150 147 169 203 202 160 125 161 190 215 217 235 274 205 218 223 209 209 203 193 182 166 172 201 215 158 212 189 113 269 272 251 175 210 210 207 233 218 198 220 248 250 248 254 238 219 216
228 230 331 176 175 165 154 227 193 198 228 216 224 225 194 220 216 187 182 189 198 195 223 265 204 208 223 183 168 172 176 194 194 198 218 227 227 228 193 172 161 154 157 174 201 194 112 115 190 230 295 315 312 336 8 121 161 231 242 190 169 193 184 162 177 181 164 197 180 104 253 267 282 121 240 250 245 262 260 224 227 252 268 259 245 226 215 218
239 230 344 192 183 175 169 213 197 206 219 219 230 219 204 241 211 189 192 196 194 178 206 235 211 201 227 153 145 183 193 198 204 210 215 224 238 226 165 171 172 167 178 187 177 174 173 184 196 210 248 308 313 310 295 236 165 217 232 191 189 195 172 125 133 133 181 212 185 164 242 251 280 347 304 294 292 273 253 238 234 247 261 261 246 218 207 204
284 232 217 201 201 198 210 218 206 208 211 220 229 216 214 233 198 196 205 198 200 197 202 225 204 175 190 149 153 198 198 209 222 214 213 231 263 289 183 185 181 189 209 197 169 172 177 186 189 196 215 228 230 232 227 194 154 219 219 191 200 193 176 182 189 160 225 224 181 185 242 246 277 348 294 279 287 271 253 239 235 244 249 255 250 224 200 186
286 248 198 187 209 225 263 254 226 215 209 215 225 215 215 224 210 190 196 199 211 207 211 244 170 172 187 176 201 223 210 222 233 215 206 223 237 291 212 188 187 207 212 168 155 164 151 188 195 196 207 220 232 237 178 131 143 203 210 188 194 200 191 194 201 202 219 220 182 216 236 249 259 251 250 261 255 249 253 246 240 250 250 247 244 233 213 198
231 241 212 187 198 213 239 253 239 226 215 207 207 204 212 222 226 198 191 201 204 198 215 244 199 197 197 184 208 227 215 222 231 226 223 220 226 293 269 177 204 216 205 172 166 150 120 209 207 207 211 220 234 234 177 144 172 199 202 193 194 199 193 194 212 221 214 196 236 234 226 244 258 244 222 242 244 243 256 252 241 243 244 241 231 216 218 219
217 246 231 207 207 204 222 239 237 236 239 227 204 198 213 218 221 212 193 201 207 197 201 223 217 217 213 200 207 221 219 222 229 228 229 224 215 291 8 203 228 218 193 192 196 151 160 218 208 213 220 225 236 231 184 175 197 196 197 197 195 194 191 198 216 224 216 201 236 244 224 226 251 251 226 220 222 224 238 237 227 228 235 232 207 197 218 220
207 256 266 255 255 236 247 275 261 235 241 242 226 213 217 216 217 214 189 186 211 201 196 213 218 216 218 215 209 211 213 214 221 225 224 220 204 167 184 223 232 195 171 191 216 172 182 212 201 209 222 229 238 234 193 191 211 206 202 201 195 193 196 203 215 222 221 217 235 251 249 240 249 250 229 212 206 212 228 227 213 230 241 234 212 213 227 223
201 221 233 352 290 264 282 303 308 272 242 237 231 226 229 228 224 217 191 189 203 192 195 216 225 215 212 217 218 221 219 214 220 223 214 216 217 188 197 212 168 133 172 185 223 219 194 216 205 196 219 234 242 243 216 198 211 218 215 208 203 203 204 210 218 220 222 227 237 247 255 257 255 243 219 214 200 207 235 244 238 242 243 237 227 225 230 229
230 260 162 61 309 249 252 249 241 262 259 235 221 223 243 243 236 231 214 203 204 197 191 211 226 224 214 218 222 228 229 222 226 229 217 215 225 208 211 213 153 149 184 187 195 178 185 228 218 165 224 237 241 246 234 198 213 236 233 216 212 211 210 212 216 216 212 218 231 240 247 255 254 213 170 210 194 197 229 237 238 243 235 229 230 227 228 231
225 258 233 174 262 241 235 240 220 227 244 240 228 221 228 243 249 251 249 215 209 213 205 205 217 222 218 220 221 226 231 228 230 237 223 219 246 236 227 226 189 171 178 183 184 159 172 202 207 196 225 240 244 246 228 161 195 242 232 222 218 215 213 212 217 221 217 211 218 227 233 247 251 208 177 225 201 203 225 227 232 242 235 225 227 227 229 231
Height
798 797 797 797 798 798 798 798 798 798 798 798 798 798 798 798 798 799 799 799 799 800 800 800 800 800 800 800 800 800 800 799 799 800 800 801 802 802 802 803 803 802 802 801 800 800 800 801 800 800 800 802 806 808 808 810 813 813 821 829 831 840 837 832 835 835 830 826 827 830 830 829 830 832 832 832 833 834 835 835 835 836 836 836 834 835 835 835
798 798 798 798 798 798 798 798 798 798 798 798 798 798 798 798 798 799 799 799 799 800 800 800 800 800 800 800 800 799 799 799 799 800 800 802 802 802 803 803 803 802 802 801 801 800 801 803 802 801 803 806 810 809 809 812 813 818 829 830 830 834 831 827 828 829 829 826 826 830 831 830 828 830 831 831 833 835 833 832 834 834 833 835 835 835 835 835
798 798 798 797 797 797 797 797 797 797 797 797 797 797 798 798 798 798 798 799 799 800 800 800 800 800 800 800 799 800 799 799 800 801 801 801 802 803 803 803 803 802 802 801 802 801 802 803 802 803 805 809 813 812 811 813 815 823 827 825 827 828 827 829 828 827 828 827 827 829 831 831 829 830 830 831 834 835 832 829 830 830 829 832 834 834 834 835
797 797 797 797 797 797 797 797 797 797 796 797 797 797 797 797 798 798 798 799 799 800 800 800 800 799 800 799 800 800 798 801 802 801 801 801 802 803 803 803 803 802 803 802 802 802 802 802 802 804 807 811 815 815 815 816 817 824 825 823 826 828 826 826 827 827 829 830 829 828 832 830 829 831 830 831 833 833 830 826 825 824 824 829 832 834 834 835
796 796 796 796 796 797 797 797 796 796 796 796 797 797 797 797 798 798 799 799 799 800 800 800 800 800 800 799 801 799 800 808 805 800 801 802 802 803 803 803 803 803 803 802 802 802 802 802 803 806 810 813 816 816 818 821 820 822 826 827 828 829 825 823 827 829 830 832 830 829 830 828 829 830 829 831 830 827 824 823 823 822 824 826 829 832 833 834
795 795 795 795 796 796 796 797 797 797 796 796 797 797 797 798 798 798 799 799 799 800 800 800 800 800 800 800 801 799 804 810 803 799 802 801 802 803 803 803 803 803 803 803 802 802 803 804 805 810 814 817 820 819 819 823 822 821 826 829 829 829 825 823 827 828 830 829 828 828 827 828 829 828 831 831 825 822 823 824 824 824 825 826 828 831 832 833
795 795 795 795 795 796 796 796 797 797 797 797 797 797 798 798 798 799 799 799 800 800 800 800 800 801 800 801 801 801 805 805 800 800 802 801 803 803 803 804 803 803 803 803 803 803 805 806 808 814 817 819 823 822 821 822 821 820 825 827 828 830 825 825 827 828 830 827 827 829 827 828 827 827 834 829 820 821 825 826 825 824 825 826 828 830 830 831
795 795 795 795 796 796 796 796 797 797 797 797 797 798 798 798 799 799 799 800 800 800 800 800 801 801 801 801 801 804 806 802 800 801 801 802 803 803 803 804 803 804 804 803 804 804 806 808 811 816 818 821 821 821 823 821 820 821 824 826 827 829 826 827 828 828 829 828 830 830 827 828 829 831 833 823 817 822 826 825 825 825 826 827 827 829 830 831
795 795 795 796 796 796 796 797 797 797 797 798 798 798 798 799 799 799 800 800 800 800 800 800 801 800 801 801 802 807 805 800 800 800 801 802 802 803 804 804 804 804 804 805 805 804 806 810 813 813 816 821 821 821 823 821 823 824 824 826 826 826 826 827 826 827 830 829 830 828 826 830 832 834 827 817 819 824 826 826 826 826 826 827 828 828 829 830
795 795 795 796 796 797 797 797 797 797 798 798 798 799 799 799 799 800 800 800 799 800 800 800 800 801 801 801 804 808 803 800 801 800 801 802 803 804 804 805 805 805 805 806 806 805 807 809 811 811 813 819 820 824 826 823 825 826 826 827 826 827 827 828 826 828 830 829 830 828 828 830 833 834 823 815 822 826 825 826 827 826 826 827 828 828 828 829
795 795 796 796 796 797 797 797 798 798 798 798 799 799 799 799 799 800 800 800 800 800 800 800 800 801 801 801 806 807 801 800 801 800 802 802 803 804 804 805 805 805 806 806 807 807 807 808 809 811 813 818 820 825 826 824 826 827 827 826 827 827 826 828 828 829 830 828 829 829 830 832 834 832 820 817 825 827 823 824 827 827 826 827 828 828 829 828
795 795 796 796 796 797 797 798 798 798 799 799 799 799 799 799 799 800 800 800 800 800 800 800 800 801 801 803 805 803 800 801 801 801 802 802 803 804 804 805 805 806 806 807 809 808 809 809 809 812 816 818 822 826 825 826 828 828 828 827 827 827 825 828 830 831 831 828 829 831 832 833 832 825 817 821 828 827 825 824 826 827 827 828 828 828 828 828
795 795 796 796 797 797 797 798 798 799 799 799 799 799 799 799 799 799 799 800 800 800 800 800 800 800 801 803 802 800 800 801 801 801 802 803 803 804 805 806 806 807 807 808 809 809 810 809 810 813 817 819 823 826 824 827 829 828 831 831 831 831 828 830 833 833 831 830 830 832 833 828 823 819 817 825 828 826 825 823 825 827 828 828 828 828 828 827
795 795 796 796 797 797 798 798 798 799 799 799 799 798 799 798 799 799 799 800 800 800 800 800 801 800 802 803 800 799 800 800 801 802 802 803 803 804 805 806 806 807 808 808 810 810 810 810 811 813 818 821 823 824 826 830 831 831 834 838 843 840 830 829 835 833 829 832 832 832 835 826 816 815 819 826 827 824 821 821 826 827 827 828 828 829 827 826
795 795 796 796 797 797 798 798 799 799 799 799 798 798 798 798 798 798 799 800 800 800 800 801 801 801 804 802 798 799 799 799 801 801 802 803 803 804 806 806 807 808 808 809 810 811 811 811 812 817 822 823 823 825 830 833 834 838 837 839 850 846 833 828 832 833 828 831 833 831 834 827 816 814 821 828 828 826 821 820 825 826 826 827 827 828 826 825
794 796 796 796 797 797 798 798 799 799 799 798 798 798 798 798 798 799 799 799 800 801 800 802 801 802 806 803 799 799 799 799 800 801 803 803 803 804 806 807 808 808 809 810 810 811 811 812 819 825 824 824 826 827 833 837 839 844 843 840 845 845 839 832 830 836 833 830 833 831 831 825 816 816 824 829 828 828 825 822 824 823 824 825 825 826 825 824
794 795 796 797 797 798 798 798 798 799 798 798 798 798 798 798 799 799 799 800 801 801 801 802 801 803 804 800 799 799 799 800 800 801 802 803 804 804 806 807 809 809 809 810 810 812 812 816 825 827 827 831 833 829 837 844 840 843 848 845 845 846 845 837 829 834 836 832 832 832 833 824 814 815 822 826 828 828 824 819 819 820 822 823 824 824 822 822
794 795 796 796 797 798 798 798 798 798 798 798 798 799 799 799 799 800 800 800 801 802 802 802 803 807 805 799 799 800 799 800 800 802 803 804 805 805 806 807 809 810 811 813 813 814 817 822 827 827 831 835 834 832 837 840 833 834 841 841 844 847 848 842 833 832 834 832 832 833 834 826 816 815 816 821 828 827 820 817 817 819 820 821 821 820 819 819
793 794 795 796 797 798 798 798 798 798 798 799 799 799 799 800 800 800 801 801 801 801 802 801 801 806 805 799 800 800 800 801 801 802 803 804 805 805 806 807 810 811 815 819 818 820 822 824 829 831 832 832 830 829 828 828 827 829 834 835 837 839 842 841 834 833 835 832 832 832 830 824 818 814 811 815 826 825 820 819 819 817 818 818 818 816 815 815
792 794 795 796 797 797 798 798 798 798 798 798 799 799 799 800 802 802 802 802 799 798 799 799 798 799 799 799 800 800 800 801 802 803 803 804 804 805 808 809 812 815 819 822 822 825 827 828 832 828 824 825 826 826 826 829 833 833 835 837 838 840 838 835 832 835 837 833 828 828 828 825 819 814 810 814 823 824 820 818 815 813 813 812 812 810 809 809
792 793 794 795 796 797 798 798 798 798 798 798 799 799 799 800 802 802 802 800 798 797 798 798 799 798 797 799 799 798 800 801 803 803 803 804 804 806 810 813 816 820 825 827 827 828 829 832 829 820 820 824 826 830 831 834 835 835 837 838 841 845 838 832 833 835 838 835 828 828 831 827 820 815 811 815 819 815 812 812 808 805 806 807 806 804 804 805
791 792 793 795 796 797 797 798 798 798 798 798 799 800 800 800 800 800 801 800 797 795 797 799 800 799 798 799 799 798 799 802 804 803 803 805 805 807 812 815 818 823 828 830 828 831 835 833 823 818 825 828 830 835 834 834 836 836 840 842 842 844 839 833 836 839 838 835 830 830 833 826 820 816 812 812 811 806 805 804 800 798 799 800 800 799 800 802
790 790 793 794 795 797 797 798 798 798 798 799 799 800 800 800 800 801 801 802 799 794 796 797 797 797 798 798 797 798 799 800 802 802 803 804 806 810 812 815 820 824 828 827 826 833 835 827 820 822 826 826 830 837 835 835 838 837 840 842 839 842 839 830 833 839 838 837 834 833 834 828 818 813 808 805 805 803 801 799 797 796 796 792 792 793 795 797
787 789 791 792 795 796 797 798 798 798 798 798 798 798 799 800 801 801 800 803 802 795 793 794 794 794 794 794 794 796 799 798 798 799 801 802 807 811 811 814 821 825 827 825 825 829 825 820 824 827 825 824 829 836 836 834 836 837 839 839 836 836 835 831 833 837 836 839 841 836 830 821 812 808 802 801 806 804 798 797 794 792 791 789 789 789 790 791
786 788 789 791 794 794 797 798 797 798 798 798 797 796 799 800 800 801 801 807 806 797 793 792 791 789 787 790 792 794 798 797 795 795 797 799 803 808 812 814 819 823 826 827 830 829 821 821 826 826 827 828 828 833 833 831 834 835 832 831 830 828 830 834 837 837 835 836 841 839 828 814 807 804 799 799 802 797 791 791 788 785 786 788 787 785 785 787
784 786 787 790 792 793 797 797 796 798 797 798 796 795 800 799 801 801 802 814 811 796 792 790 788 785 782 788 791 794 800 797 792 793 795 797 798 801 810 815 816 820 825 828 830 827 821 823 823 822 827 829 829 832 832 830 834 834 829 828 829 830 833 836 838 839 837 835 841 844 834 822 811 800 795 798 797 790 786 785 783 782 781 782 782 780 781 784
783 784 786 788 790 792 795 795 796 797 797 796 793 796 799 798 802 800 804 824 813 786 785 789 787 782 780 786 787 791 801 795 791 795 795 797 798 799 806 814 817 819 822 826 827 822 818 823 825 823 824 829 830 829 828 830 831 830 831 831 830 832 834 836 838 840 840 840 842 841 837 836 823 803 798 799 795 792 789 783 780 778 775 776 777 776 777 779
781 783 784 786 788 789 791 792 794 795 796 795 793 796 797 798 803 798 811 831 805 774 779 785 783 780 782 787 785 788 796 791 791 797 796 797 799 800 805 811 813 814 816 819 820 817 815 817 820 821 823 827 826 821 823 826 825 828 837 838 834 835 836 838 840 842 848 849 839 834 840 839 820 802 803 804 798 792 784 777 772 771 771 771 771 771 774 776
780 781 782 785 786 787 789 790 791 793 794 794 794 796 796 800 800 800 823 828 790 769 776 779 781 783 786 790 789 790 793 793 795 797 798 799 799 801 806 809 810 813 815 814 812 813 816 819 818 818 819 819 820 824 827 822 820 831 841 839 837 841 841 843 842 841 850 849 832 826 835 833 813 795 796 800 797 790 779 771 766 765 768 768 767 769 773 776
778 779 781 783 785 786 787 789 790 792 794 795 796 795 797 799 799 815 837 818 780 776 781 779 782 784 787 792 795 794 793 797 799 799 801 802 801 802 805 808 810 813 817 816 814 815 819 823 822 817 816 816 820 831 834 827 826 833 834 830 834 839 839 844 846 844 848 840 823 821 825 826 818 799 787 785 783 779 772 766 763 763 765 764 766 769 772 775
777 778 780 781 782 783 785 787 788 791 794 795 796 797 799 800 804 820 825 798 778 782 783 783 786 784 784 786 791 794 795 799 800 798 802 804 805 806 807 809 811 817 821 818 816 818 819 821 819 816 818 818 819 828 835 835 835 831 825 826 832 836 838 844 846 848 847 831 822 830 831 829 822 800 784 779 775 774 771 764 760 761 761 759 762 768 772 775
776 777 778 779 780 781 782 783 785 790 794 795 798 799 799 807 812 812 803 788 782 780 775 781 786 785 785 782 785 791 794 797 798 797 799 804 807 806 804 804 807 816 822 818 816 819 816 815 815 815 819 817 814 823 834 837 835 829 825 829 836 842 845 843 846 854 849 831 830 840 834 827 815 792 782 780 773 771 771 767 765 764 762 759 760 766 772 776
775 776 777 778 778 779 780 781 784 789 792 795 801 801 803 811 808 798 792 784 779 776 774 778 783 786 787 785 788 792 792 794 797 797 797 801 806 805 802 800 801 805 810 813 819 821 816 814 815 813 814 812 808 814 824 829 832 829 825 827 833 844 848 842 846 855 844 828 835 845 833 821 806 784 775 772 764 763 765 766 767 766 763 761 762 767 771 775
773 774 775 776 777 777 779 781 783 786 790 794 799 805 811 810 796 787 787 779 773 777 779 780 784 789 788 785 787 789 790 794 798 798 800 803 807 806 803 802 802 801 804 812 817 818 816 809 805 805 805 805 803 802 806 815 827 827 822 824 825 828 830 828 829 832 826 823 834 842 829 807 789 774 770 768 765 767 765 763 765 764 764 766 767 769 770 773
772 772 773 774 775 776 778 779 780 784 788 792 799 807 809 801 789 784 783 776 773 777 781 782 784 789 790 788 790 787 784 791 797 799 801 803 802 800 797 796 799 799 801 807 808 813 816 802 796 802 801 800 800 799 801 809 821 827 825 824 822 816 812 820 832 835 835 834 831 828 814 793 779 769 767 768 765 764 762 762 765 760 758 764 766 766 769 772
771 771 772 772 772 774 777 778 779 782 785 790 801 804 794 781 776 776 771 768 770 774 780 785 784 787 790 790 792 790 785 787 795 799 800 800 795 793 791 785 787 791 790 794 800 806 810 803 801 806 803 803 803 800 802 804 809 823 828 821 819 818 810 816 837 849 850 837 817 810 801 787 780 767 758 762 760 758 759 761 760 754 755 761 758 758 766 770
770 770 769 769 770 772 775 777 779 781 784 790 796 791 780 772 766 766 765 764 767 769 775 780 778 781 787 788 790 791 788 789 795 796 796 800 793 785 785 780 777 781 777 778 788 792 795 797 804 808 803 807 811 805 804 806 806 816 821 814 815 821 816 816 827 838 848 839 815 806 800 789 785 772 757 760 760 756 757 756 754 752 755 757 750 752 763 766
769 769 766 765 767 770 773 777 779 780 784 790 790 780 773 769 759 758 762 762 764 768 771 774 772 773 779 784 785 787 788 787 794 796 792 797 788 771 776 778 774 777 773 773 782 785 787 792 803 815 810 807 812 806 805 811 811 810 810 808 810 814 816 822 825 823 831 833 813 803 803 795 786 772 756 755 752 745 747 752 754 752 751 749 746 751 760 763
769 770 764 760 763 767 771 775 778 780 781 785 787 778 768 763 757 757 760 759 761 767 769 767 766 769 773 776 778 784 785 782 789 793 786 789 782 764 765 769 768 774 774 775 781 782 787 788 797 815 816 809 810 807 805 809 812 812 810 810 810 809 810 816 820 816 815 819 811 801 795 779 767 762 751 746 744 738 739 746 749 745 741 743 747 751 755 758
769 769 762 756 759 763 767 773 777 778 776 776 777 771 762 759 759 759 759 758 758 761 763 761 761 766 768 770 773 777 779 778 783 786 778 778 775 763 761 761 764 773 775 778 781 781 786 787 792 811 818 811 805 800 796 797 802 807 808 810 811 812 814 813 816 816 811 813 818 815 795 760 746 753 744 736 741 740 737 740 740 736 736 742 748 748 750 754
769 769 761 755 757 760 765 773 774 772 771 769 767 764 760 758 759 759 757 759 759 757 758 758 758 760 762 767 769 770 775 777 780 782 776 773 769 759 756 755 759 770 777 783 783 779 783 785 791 806 812 802 794 793 794 791 790 792 794 797 796 800 808 810 814 818 814 811 813 816 798 753 733 746 739 730 737 738 736 738 735 732 735 742 747 747 749 752
768 767 759 755 756 757 764 770 769 768 767 763 760 759 758 757 758 759 757 759 761 759 759 758 756 755 756 760 762 765 771 773 776 779 773 768 762 754 751 752 754 761 769 776 775 769 773 780 787 795 797 794 793 798 804 800 792 791 791 789 787 790 795 796 803 811 814 813 810 817 806 754 727 743 741 733 739 741 743 744 734 730 736 742 744 748 752 752
766 762 757 756 756 755 761 764 764 765 763 756 753 754 756 757 757 758 758 759 761 760 760 758 755 754 753 755 758 763 766 766 768 770 765 762 757 750 750 753 755 758 761 767 770 768 773 780 783 786 788 791 794 797 803 803 797 794 794 793 791 790 788 787 792 796 802 807 805 817 810 758 731 747 748 743 747 746 748 748 739 734 737 738 740 746 751 751
762 760 757 758 757 755 756 756 756 760 758 753 752 754 755 755 755 756 756 757 757 757 758 756 754 753 753 754 756 758 760 760 762 761 758 758 754 750 750 752 755 756 754 757 760 764 772 777 778 784 788 789 792 793 794 798 799 794 791 793 790 787 789 791 793 795 797 794 792 803 794 752 736 748 746 745 748 741 741 746 746 742 735 733 739 745 749 751
761 759 757 757 757 754 750 746 747 752 753 752 753 753 754 754 753 752 752 753 754 753 753 753 751 751 753 754 754 755 755 754 754 755 757 756 753 752 752 751 753 752 747 747 748 752 762 767 769 779 786 784 779 775 773 783 796 796 789 790 788 787 790 789 790 798 794 782 784 789 771 742 737 744 740 742 746 738 733 739 744 743 737 735 741 744 746 749
762 759 756 755 755 753 750 745 745 746 747 750 750 749 750 751 749 749 751 752 753 752 751 752 751 752 753 754 755 754 754 752 750 752 756 753 749 750 751 752 752 748 746 747 748 750 757 759 758 761 766 764 757 755 760 770 783 787 781 783 787 786 786 784 787 791 782 776 782 776 755 741 739 740 739 739 741 737 732 733 735 737 737 737 739 743 745 746
761 757 753 753 753 752 750 748 746 745 743 744 745 743 744 745 745 748 751 750 749 750 752 751 751 751 751 753 754 752 751 751 750 751 753 751 747 749 753 754 752 747 747 749 749 752 756 756 754 752 751 748 741 746 759 762 763 768 771 777 782 782 784 786 783 773 766 775 774 755 749 752 740 733 738 737 736 737 735 733 731 731 732 733 736 741 742 744
758 753 749 749 750 749 748 745 744 745 743 741 741 738 739 741 743 745 748 748 746 747 751 752 751 749 746 746 750 751 750 752 752 750 748 748 748 750 752 754 752 749 749 751 750 750 753 752 751 750 750 745 737 742 755 755 751 756 761 766 772 777 782 781 773 760 758 767 757 736 743 752 734 726 733 732 730 732 730 730 731 730 730 730 733 736 736 739
754 753 749 750 749 746 744 741 741 744 744 743 742 738 735 736 737 738 741 746 748 745 746 748 746 744 744 743 745 748 748 749 750 747 744 744 746 748 748 747 749 750 750 751 750 750 750 748 746 748 749 746 739 740 748 750 750 753 756 759 763 769 772 768 760 751 750 755 748 735 741 742 724 718 724 725 726 728 728 730 731 728 725 725 730 732 731 734
751 751 749 750 750 747 745 744 744 746 744 743 743 739 736 734 732 731 734 738 743 743 742 741 738 738 742 744 743 742 739 738 740 737 737 740 742 744 743 740 742 749 752 751 750 751 751 746 743 746 751 748 741 738 744 749 750 751 755 758 759 761 761 757 750 748 753 756 748 743 746 735 714 710 718 721 723 726 727 728 727 724 723 723 726 728 728 729
747 747 748 752 752 747 745 745 745 748 746 743 743 740 739 738 734 731 730 728 731 735 736 737 736 735 739 741 741 738 732 730 731 729 729 735 736 736 737 735 736 744 751 750 747 748 751 749 745 749 754 749 739 737 744 752 756 756 757 757 754 750 748 747 747 747 749 750 747 751 752 729 705 708 719 720 721 724 724 724 723 722 722 723 723 723 724 724
746 747 748 753 751 745 743 744 744 746 742 738 738 737 737 736 734 733 732 727 724 726 728 729 731 733 736 737 735 730 724 724 726 727 729 733 733 732 734 735 733 737 744 747 746 746 748 749 749 753 755 748 738 737 744 754 761 757 746 736 732 734 738 742 745 742 737 738 742 744 735 712 702 712 720 719 721 722 718 717 717 716 717 720 720 720 721 720